Regional Weather Roundup
Issued by NWS

Home | Current Version | Previous Version | Text Only | Print | Product List | Glossary Off
Versions: 1 2 3 4 5 6 7 8 9 10 11 12 13 14 15 16 17 18 19 20 21 22 23 24 25 26 27 28 29 30 31 32 33 34 35 36 37 38 39 40 41 42 43 44 45 46 47 48 49 50

000
ASUS43 KTOP 261808
RWRKS

WEATHER ROUNDUP FOR KANSAS
NATIONAL WEATHER SERVICE GOODLAND KS
100 PM CDT SAT JUL 26 2014

NOTE:  "FAIR" INDICATES FEW OR NO CLOUDS BELOW 12,000 FEET WITH NO
SIGNIFICANT WEATHER AND/OR OBSTRUCTIONS TO VISIBILITY.

KSZ001>006-013>018-027>032-041>047-261900-
NORTHWEST KANSAS

CITY           SKY/WX    TMP DP  RH WIND       PRES   REMARKS
GOODLAND       SUNNY     93  53  25 NW14      30.02R
6HR MIN TEMP:  66; 6HR MAX TEMP:  93;

HAYS           SUNNY     93  64  38 W9        29.88S HX  95
HILL CITY      SUNNY     96  64  34 SW7       29.89S HX  98
6HR MIN TEMP:  70; 6HR MAX TEMP:  96;

RUSSELL        SUNNY     94  66  39 NW6       29.85F HX  97
6HR MIN TEMP:  78; 6HR MAX TEMP:  94;

$$

KSZ061>065-074>080-084>089-261900-
SOUTHWEST KANSAS

CITY           SKY/WX    TMP DP  RH WIND       PRES   REMARKS
DODGE CITY     MOSUNNY   95  65  37 SW12      29.94F HX  97
6HR MIN TEMP:  76; 6HR MAX TEMP:  96;

ELKHART          N/A    N/A N/A N/A MISG        N/A
GARDEN CITY    SUNNY     93  63  36 SW6       29.96S
6HR MIN TEMP:  68; 6HR MAX TEMP:  93;

GREAT BEND     MOSUNNY   93  70  46 NW6       29.86F HX  99
LIBERAL        SUNNY     97  55  24 SW8       29.98F HX  95
PRATT          MOSUNNY   95  59  30 W13       29.90F
$$

KSZ066>073-081>083-090>101-261900-
SOUTHEAST KANSAS

CITY           SKY/WX    TMP DP  RH WIND       PRES   REMARKS
CHANUTE        PTSUNNY   93  71  48 SW18G26   29.88F HX 100
6HR MIN TEMP:  75; 6HR MAX TEMP:  94;

COFFEYVILLE    SUNNY     94  71  47 S15       29.89F HX 101
6HR MIN TEMP:  75; 6HR MAX TEMP:  95;

HUTCHINSON     MOSUNNY   97  60  29 W14       29.85F HX  97
6HR MIN TEMP:  77; 6HR MAX TEMP:  97;

MEDICINE LODGE   N/A     97  63  32 SW12      29.87F HX  98
NEWTON         MOSUNNY   93  63  36 SW21      29.89F
PARSONS        MOSUNNY   94  71  47 S14G20    29.90F HX 101
6HR MIN TEMP:  76; 6HR MAX TEMP:  94;

WICHITA INTL   PTSUNNY   95  63  34 SW15      29.86F HX  96
6HR MIN TEMP:  75; 6HR MAX TEMP:  98;

WICHITA JABRA  MOSUNNY   98  67  36 S15       29.86F HX 102
6HR MIN TEMP:  77; 6HR MAX TEMP:  98;

WICHITA MCCONL SUNNY     97  63  32 S18       29.87F HX  99
WINFIELD       MOSUNNY   97  70  41 S17G26    29.89F HX 103
6HR MIN TEMP:  75; 6HR MAX TEMP:  97;

$$

KSZ007>012-019>026-033>040-048>060-102>105-261900-
NORTHEAST KANSAS

CITY           SKY/WX    TMP DP  RH WIND       PRES   REMARKS
CONCORDIA      SUNNY     97  69  40 VRB5      29.81S HX 103
6HR MIN TEMP:  76; 6HR MAX TEMP:  97;

EMPORIA        CLOUDY    91  67  44 S18       29.85F
6HR MIN TEMP:  79; 6HR MAX TEMP:  91;

LAWRENCE       CLOUDY    86  70  58 S9        29.81F
6HR MIN TEMP:  79; 6HR MAX TEMP:  87;

MANHATTAN      PTSUNNY   88  66  48 SW12      29.82R
6HR MIN TEMP:  77; 6HR MAX TEMP:  90; 6HR PCP: TRACE;

MARYSVILLE     MOSUNNY   95  73  49 S9        29.80F HX 105
OLATHE IND     CLOUDY    84  70  62 S9        29.85F
6HR MIN TEMP:  78; 6HR MAX TEMP:  86;

OLATHE EXE     CLOUDY    82  71  69 SW8       29.84F
6HR MIN TEMP:  78; 6HR MAX TEMP:  83; 6HR PCP:  0.02;

SALINA         SUNNY     97  61  30 W10       29.82F HX  97
6HR MIN TEMP:  79; 6HR MAX TEMP:  97; 6HR PCP: TRACE;

TOPEKA BILLARD CLOUDY    87  68  52 W8        29.81F
6HR MIN TEMP:  82; 6HR MAX TEMP:  88; 6HR PCP: TRACE;

TOPEKA FORBES  LGT RAIN  82  70  66 S12       29.81F
6HR MIN TEMP:  79; 6HR MAX TEMP:  87; 6HR PCP: TRACE;

$$



USA.gov is the U.S. government's official web portal to all federal, state and local government web resources and services.